SCP
0 0 0 0 0 0 0 0 0 0 0 0 0 0 0 0 0 0 0 0 0 0 0 0 0 0 0 0 0 0 0 0 0 0 1 2 2 1 0 0 0 0 0 0
0 0 0 0 0 0 0 0 0 0 0 0 0 0 0 0 0 0 0 0 0 0 0 0 0 0 0 0 0 0 0 0 0 0 1 1 1 1 0 0 0 0 0 0
0 0 0 0 0 0 0 0 0 0 0 0 0 0 0 0 0 0 0 0 0 0 0 0 0 0 0 0 0 0 0 0 0 0 1 1 1 0 0 0 0 0 0 0
0 0 0 0 0 0 0 0 0 0 0 0 0 0 0 0 0 0 0 0 0 0 0 0 0 0 0 0 0 0 0 0 0 0 0 0 0 0 0 0 0 0 0 0
0 0 0 0 0 0 0 0 0 0 0 0 0 0 0 0 0 0 0 0 0 0 0 0 0 0 0 0 0 0 0 0 0 0 0 0 0 0 0 1 1 1 0 0
0 0 0 0 0 0 0 0 0 0 0 0 0 0 0 0 0 0 0 0 0 0 0 0 0 0 0 0 0 0 0 0 0 0 0 0 0 0 1 1 1 1 0 0
0 0 0 0 0 0 0 0 0 0 0 0 0 0 0 0 0 0 0 0 0 0 0 0 0 0 0 0 0 0 0 0 0 0 0 0 0 0 0 1 1 1 0 0
0 0 0 0 0 0 0 0 0 0 0 0 0 0 0 0 0 0 0 0 0 0 0 0 0 0 0 0 0 0 0 0 0 0 0 0 0 0 0 0 0 0 0 0
0 0 0 0 0 0 0 0 0 0 0 0 0 0 0 0 0 0 0 0 0 0 0 0 0 0 0 0 0 0 0 0 0 0 0 0 0 0 0 0 0 0 0 0
0 0 0 0 0 0 0 0 0 0 0 0 0 0 0 0 0 0 0 0 0 0 0 0 0 0 0 0 0 0 0 0 0 0 0 0 0 0 0 0 0 0 0 0
0 0 0 0 0 0 0 0 0 0 0 0 0 0 0 0 0 0 0 0 0 0 0 0 0 0 0 0 0 0 0 0 0 0 0 0 0 0 0 0 0 0 0 0
0 0 0 0 0 0 0 0 0 0 0 0 0 0 0 0 0 0 0 0 0 0 0 0 0 0 0 0 0 0 0 0 0 0 0 0 0 0 0 0 0 0 0 0
-0 0 0 0 0 0 0 0 0 0 0 0 0 0 0 0 0 0 0 0 0 0 0 0 0 0 0 0 0 0 0 0 0 0 0 0 0 0 0 0 0 0 0 0
0 0 0 0 0 0 0 0 0 0 0 0 0 0 0 0 0 0 0 0 0 0 0 0 0 0 0 0 0 0 0 0 0 0 0 0 0 0 0 0 0 0 0 0
0 0 0 0 0 0 0 0 0 0 0 0 0 0 0 0 0 0 0 0 0 0 0 0 0 0 0 0 0 0 0 0 0 0 0 0 0 0 0 0 0 0 0 0
0 0 0 0 0 0 0 0 0 0 0 0 0 0 0 0 0 0 0 0 0 0 0 0 0 0 0 0 0 0 0 0 0 0 0 0 0 0 0 0 0 0 0 0
0 0 0 0 0 0 0 0 0 0 0 0 0 0 0 0 0 0 0 0 0 0 0 0 0 0 0 0 0 0 0 0 0 0 0 0 0 0 0 0 0 0 0 0
0 0 0 0 0 0 0 0 0 0 0 0 0 0 0 0 0 0 0 0 0 0 0 0 0 0 0 0 0 0 0 0 0 0 0 0 0 0 0 0 0 0 0 0
0 0 0 0 0 0 0 0 0 0 0 0 0 0 0 0 0 0 0 0 0 0 0 0 0 0 0 0 0 0 0 0 0 0 0 0 0 0 0 0 0 0 0 0
0 0 0 0 0 0 0 0 0 0 0 0 0 0 0 0 0 0 0 0 0 0 0 0 0 0 0 0 0 0 0 0 0 0 0 0 0 0 0 0 0 0 0 0
0 0 0 0 0 0 0 0 0 0 0 0 0 0 0 0 0 0 0 0 0 0 0 0 0 0 0 0 0 0 0 0 0 0 0 0 0 0 0 0 0 0 0 0
0 0 0 0 0 0 0 0 0 0 0 0 0 0 0 0 0 0 0 0 0 0 0 0 0 0 0 0 0 0 0 0 0 0 0 0 0 0 0 0 0 0 0 0
0 0 0 0 0 0 0 0 0 0 0 0 0 0 0 0 0 0 0 0 0 0 0 0 0 0 0 0 0 0 0 0 0 0 0 0 0 0 0 0 0 0 0 0
0 0 0 0 0 0 0 0 0 0 0 0 0 0 0 0 0 0 0 0 0 0 0 0 0 0 0 0 0 0 0 0 0 0 0 0 0 0 0 0 0 0 0 0
0 0 0 0 0 0 0 0 0 0 0 0 0 0 0 0 0 0 0 0 0 0 0 0 0 0 0 0 0 0 0 0 0 0 0 0 0 0 0 0 0 0 0 0
0 0 0 0 0 0 0 0 0 0 0 0 0 0 0 0 0 0 0 0 0 0 0 0 0 0 0 0 0 0 0 0 0 0 0 0 0 0 0 0 0 0 0 0
0 0 0 0 0 0 0 0 0 0 0 0 0 0 0 0 0 0 0 0 0 0 0 0 0 0 0 0 0 0 0 0 0 0 0 0 0 0 0 0 0 0 0 0
Wind_Speed
1 1 2 5 5 5 4 1 2 2 2 4 5 5 5 4 4 5 5 6 6 5 5 5 5 5 5 4 3 2 2 2 2 2 2 2 3 3 3 4 4 5 5 5
1 1 4 6 7 5 3 3 1 2 3 5 6 5 5 5 5 5 6 6 6 6 6 5 5 5 5 5 4 3 2 2 2 1 1 1 2 3 3 3 4 4 4 5
2 3 3 5 5 3 3 3 1 1 3 6 6 6 5 4 4 5 5 6 6 6 6 5 5 5 5 5 4 3 2 2 2 1 1 1 2 3 3 3 3 4 4 4
1 3 1 2 2 3 2 4 4 4 5 6 5 5 4 4 4 5 6 6 6 5 6 6 5 5 5 4 3 3 2 2 2 1 1 1 1 2 3 2 3 3 3 4
1 0 2 3 5 4 2 3 5 5 7 7 6 4 4 4 5 4 5 5 5 5 5 5 5 5 4 4 4 4 3 3 2 1 1 0 1 1 2 2 2 2 3 3
2 1 2 4 8 7 0 2 6 6 7 7 6 5 5 7 6 5 5 4 5 5 5 5 6 5 4 4 4 4 4 3 2 1 0 0 0 0 0 2 2 2 2 2
1 1 3 4 8 4 2 4 7 6 6 5 4 4 6 7 6 5 5 5 5 4 4 5 5 5 5 5 5 5 4 4 3 2 1 0 0 1 1 1 2 2 2 1
1 0 4 5 5 3 3 5 5 5 5 5 5 6 7 7 6 6 6 6 5 4 5 5 5 5 5 5 5 5 4 4 3 3 2 1 1 1 1 2 2 2 1 1
2 3 3 2 1 3 4 4 5 5 6 5 6 6 7 7 6 6 6 5 5 5 5 5 5 5 5 6 5 4 4 4 3 3 3 2 1 1 1 1 1 1 1 1
1 3 4 4 3 4 4 4 5 5 5 5 5 6 7 6 6 5 5 5 5 5 6 6 6 6 5 6 5 4 4 4 4 3 3 3 2 1 0 0 1 1 1 1
2 4 5 4 4 5 6 6 6 6 5 5 5 6 6 6 5 5 5 5 5 5 5 6 6 6 6 6 5 5 4 4 4 3 3 3 3 2 1 1 0 0 1 1
4 4 4 6 6 6 6 7 7 6 7 6 5 6 6 5 5 4 5 5 5 5 6 6 6 6 6 6 5 4 4 4 3 3 3 3 2 3 4 3 3 3 2 0
4 5 5 6 6 5 5 6 6 5 6 6 6 5 5 5 5 5 5 5 5 5 5 5 6 6 6 6 5 4 4 3 3 3 2 2 2 2 2 3 4 4 3 3
4 4 4 4 5 6 6 6 5 5 5 5 5 5 5 5 5 5 5 5 5 4 5 5 5 6 6 6 5 5 4 4 3 2 2 2 2 2 2 1 2 2 3 4
4 3 4 5 5 5 5 5 5 6 6 6 5 5 5 5 5 5 5 5 5 5 5 5 6 6 6 6 5 5 4 3 3 2 2 2 2 2 2 1 1 1 2 2
6 5 4 4 5 6 5 5 5 6 6 6 5 6 5 5 5 4 4 4 5 5 5 5 6 6 6 5 5 4 4 6 5 3 2 2 2 2 1 1 1 1 1 2
4 5 5 5 6 6 5 5 4 5 5 5 6 6 5 5 5 5 5 5 4 4 4 5 5 6 6 5 4 3 3 4 5 3 2 2 2 2 1 1 1 1 1 2
3 4 4 4 4 5 5 5 4 4 4 5 5 5 5 5 5 6 6 6 5 5 5 5 5 6 5 5 4 3 3 3 3 3 3 2 2 2 1 1 1 1 2 2
3 3 4 4 3 3 4 4 4 4 4 4 4 4 4 4 5 5 5 5 5 6 6 5 9 7 5 6 5 3 3 3 3 3 3 3 3 2 2 2 2 2 2 2
3 3 3 3 3 3 3 4 4 4 4 4 4 4 4 5 5 5 5 4 4 4 5 7 6 5 5 5 6 3 3 3 3 3 3 2 2 2 2 2 2 2 2 2
4 4 4 4 4 4 3 3 3 4 4 4 3 4 5 5 5 4 4 5 5 6 6 8 5 4 4 5 5 3 3 3 3 3 3 2 2 2 2 2 2 2 2 2
3 3 4 4 3 4 4 3 3 3 4 4 4 4 4 5 5 4 4 3 5 9 7 4 4 6 7 6 3 3 3 3 3 3 2 2 2 2 2 2 2 3 3 3
3 3 3 3 3 4 4 3 3 3 4 4 4 4 4 4 4 4 5 4 5 9 7 4 8 10 10 5 3 3 3 3 3 3 3 3 3 2 3 3 3 3 3 3
3 3 3 3 3 3 4 4 3 3 3 4 4 4 4 4 4 3 3 8 10 10 6 8 11 11 9 3 3 3 3 3 3 3 3 3 2 2 3 3 3 3 3 4
3 3 3 3 3 3 4 4 4 4 4 3 4 4 3 3 4 5 5 6 9 9 6 8 11 10 6 3 3 3 3 3 3 3 3 3 3 3 3 3 3 3 3 3
2 2 2 2 2 3 3 3 3 3 3 4 4 4 4 3 4 4 4 5 6 8 6 5 5 6 4 4 4 4 3 4 4 3 3 3 3 3 3 3 4 4 4 4
2 2 2 2 2 2 2 2 3 4 4 4 5 4 4 4 4 4 5 4 5 5 5 4 4 4 4 4 4 4 3 3 3 3 3 3 3 3 4 4 4 3 3 3
Wind_Direction
298 319 63 38 17 26 53 98 167 252 294 319 334 333 340 352 6 8 4 3 0 354 347 348 349 346 340 333 333 327 318 306 292 273 236 207 203 198 188 184 186 185 183 188
330 13 53 35 13 6 5 11 30 358 334 339 339 358 6 3 7 4 356 355 352 349 346 343 341 338 335 328 328 332 329 313 308 309 284 218 201 183 175 178 181 183 184 186
289 319 14 11 349 356 13 14 30 330 311 336 350 356 353 344 358 352 343 346 347 345 340 334 331 330 332 324 329 333 326 319 316 304 286 246 210 179 175 177 173 182 186 187
319 27 28 252 337 8 29 28 25 14 349 340 325 317 327 346 352 340 339 339 339 339 339 336 332 330 330 334 342 339 334 336 330 305 270 239 185 181 181 170 168 181 185 189
81 91 280 328 347 341 325 349 4 355 341 337 331 333 344 354 346 332 332 333 332 333 333 334 334 331 336 347 352 352 344 336 324 301 257 185 179 187 178 160 159 173 177 180
97 114 265 295 311 311 247 319 339 341 334 333 348 345 319 331 336 339 343 340 339 339 343 343 338 337 347 353 358 349 333 320 322 315 201 167 204 197 150 143 151 149 148 163
102 184 271 306 317 353 74 294 315 320 320 327 325 289 299 320 332 338 340 340 343 346 346 342 340 347 356 355 348 335 331 336 345 353 357 39 56 42 115 123 125 127 129 127
75 136 277 325 3 30 278 296 313 321 325 324 317 318 327 331 336 344 346 349 355 354 347 344 347 356 359 352 341 340 347 358 2 5 3 23 72 66 83 117 122 121 120 115
186 210 266 313 314 296 302 309 315 319 318 322 324 329 334 336 338 342 346 350 354 355 350 350 353 358 355 346 346 350 1 5 4 11 15 25 58 90 99 121 122 121 129 146
288 282 296 312 324 333 332 314 310 315 319 327 325 327 332 332 336 342 344 347 352 357 355 352 351 355 351 344 349 359 2 3 5 8 8 13 15 23 60 130 147 147 149 153
289 302 321 324 328 325 326 327 330 333 335 332 330 330 331 330 334 337 340 344 351 353 348 345 348 353 352 350 355 4 4 3 4 4 3 10 13 15 15 3 351 166 173 173
259 277 281 289 306 321 325 328 330 332 333 336 332 324 328 326 327 331 335 340 347 348 346 344 350 352 352 351 358 7 5 5 5 4 6 7 10 16 32 41 40 41 43 60
264 288 277 282 305 319 318 320 326 328 323 325 327 325 327 324 327 330 334 339 339 337 338 342 348 350 350 349 354 3 1 356 355 0 3 1 4 9 9 21 36 38 37 37
298 308 302 309 310 319 320 320 324 328 327 324 323 326 327 328 333 337 335 332 331 335 341 343 346 346 346 349 352 356 357 354 352 352 354 354 354 354 353 1 2 6 13 15
322 317 289 300 313 321 322 326 333 334 333 335 337 337 338 336 333 330 330 334 338 344 347 348 349 345 346 349 351 352 352 351 349 349 351 353 351 354 354 356 355 354 358 358
312 318 318 322 324 328 332 335 333 330 334 337 340 340 337 333 329 331 338 345 348 344 344 345 344 340 341 345 346 346 346 349 350 349 352 351 347 349 346 348 359 357 342 333
315 321 325 324 324 328 330 329 326 326 333 340 338 337 342 347 348 349 348 347 341 334 337 340 335 335 340 343 342 338 338 340 346 347 350 347 340 333 328 336 340 331 321 327
279 282 291 297 304 314 322 329 331 333 336 334 336 344 350 351 345 340 339 340 344 347 343 335 333 335 337 336 335 332 335 338 340 341 343 342 337 334 339 336 326 323 326 332
311 307 311 314 312 312 315 322 327 332 333 336 342 344 341 339 336 333 336 342 346 343 336 334 339 341 332 330 337 328 335 338 338 337 336 336 339 339 338 334 327 319 325 332
323 326 325 327 334 333 327 328 331 334 335 339 342 343 342 339 336 336 337 334 325 314 318 329 335 332 327 326 335 329 334 333 332 332 334 331 329 329 329 328 328 324 322 321
321 326 328 332 335 336 333 332 334 332 335 341 342 335 331 330 331 332 336 332 330 329 333 337 338 324 321 328 334 331 328 326 324 322 321 318 314 315 318 319 318 315 309 305
315 320 321 325 330 330 332 333 331 330 333 336 335 331 333 335 336 334 323 308 317 329 336 331 326 328 333 340 342 333 326 322 318 314 313 312 308 303 303 305 302 303 301 296
307 309 313 318 321 320 326 330 330 332 330 330 330 330 329 324 326 328 327 324 322 330 335 328 331 337 344 353 343 332 327 323 318 313 309 307 306 303 298 294 293 295 293 292
309 312 312 315 324 330 330 328 327 327 322 319 322 324 324 325 325 318 306 319 329 332 333 330 336 341 348 351 336 330 326 322 317 311 308 308 307 304 300 296 295 292 289 289
313 315 322 329 328 319 313 318 324 326 325 325 325 325 323 317 312 316 317 320 326 333 332 334 339 342 345 331 327 322 317 310 310 313 313 311 308 304 299 296 294 293 290 285
312 310 307 306 303 307 313 319 323 325 327 327 328 325 323 320 313 313 316 318 320 329 332 326 328 334 331 325 322 320 317 316 318 315 307 303 301 301 299 298 294 289 287 286
316 316 319 322 321 317 314 315 316 319 321 318 317 322 324 324 323 324 323 324 325 326 324 325 326 325 323 323 320 319 316 314 311 308 305 301 297 294 293 293 291 289 287 286